This is the latest recevied weather packets stored in our database for station/object VE6CWS-7. If no packets are shown the sender has not sent any weather packets the latest 10 day(s).
| Time | Temp. | Humidity | Pressure | Rain* | Wind** | Luminosity | Snow |
|---|---|---|---|---|---|---|---|
| 1777428093 | 10.56° C | 40% | 1018.8 hPa | 0 mm | - | - | - |
| 1777427147 | 10.56° C | 40% | 1018.5 hPa | 0 mm | - | - | - |
| 1777426246 | 11.11° C | 36% | 1018.4 hPa | 0 mm | - | - | - |
| 1777425350 | 11.11° C | 37% | 1018.5 hPa | 0 mm | - | - | - |
| 1777424505 | 11.11° C | 38% | 1018.3 hPa | 0 mm | - | - | - |
| 1777423549 | 11.67° C | 38% | 1018.3 hPa | 0 mm | - | - | - |
| 1777422650 | 11.67° C | 38% | 1018.2 hPa | 0 mm | - | - | - |
| 1777421742 | 11.11° C | 39% | 1018.1 hPa | 0 mm | - | - | - |
| 1777420901 | 11.67° C | 39% | 1018.1 hPa | 0 mm | - | - | - |
| 1777419938 | 11.67° C | 39% | 1018 hPa | 0 mm | - | - | - |
| 1777419039 | 11.11° C | 39% | 1017.8 hPa | 0 mm | - | - | - |
| 1777418143 | 11.11° C | 40% | 1017.7 hPa | 0 mm | - | - | - |
| 1777417295 | 11.11° C | 41% | 1017.8 hPa | 0 mm | - | - | - |
| 1777416352 | 11.11° C | 39% | 1017.8 hPa | 0 mm | - | - | - |
| 1777415450 | 11.11° C | 44% | 1017.8 hPa | 0 mm | - | - | - |
| 1777414550 | 10.56° C | 43% | 1017.8 hPa | 0 mm | - | - | - |
| 1777413709 | 10.56° C | 42% | 1017.8 hPa | 0 mm | - | - | - |
| 1777412749 | 11.11° C | 42% | 1018 hPa | 0 mm | - | - | - |
| 1777411852 | 11.67° C | 41% | 1018.2 hPa | 0 mm | - | - | - |
| 1777410945 | 10.56° C | 43% | 1018.2 hPa | 0 mm | - | - | - |
| 1777410103 | 10° C | 42% | 1018.2 hPa | 0 mm | - | - | - |
| 1777409153 | 10.56° C | 44% | 1018.1 hPa | 0 mm | - | - | - |
| 1777408252 | 10° C | 45% | 1018.1 hPa | 0 mm | - | - | - |
| 1777407338 | 9.44° C | 44% | 1018.2 hPa | 0 mm | - | - | - |
| 1777406497 | 10° C | 45% | 1018.4 hPa | 0 mm | - | - | - |
* Rain latest hour (hover to see other rain measurements)
** Current wind speed in m/s (hover to see current wind gust speed)